EW0791 Weather Reports


Display with metric or nautical units.
time (UTC)temp
F
wind
direction
speed
MPH
gust
MPH
rain 1hr
in
rain 24hr
in
rain mn
in
humidity
%
barometer
mb
20240222033321 26 94 0.0 1.0 0.00 0.00 0.00 82 1026.7
20240222031824 27 94 0.0 0.0 0.00 0.00 0.00 82 1027.0
20240222030325 27 94 0.0 0.0 0.00 0.00 0.00 81 1027.1
20240222024829 27 146 0.0 1.0 0.00 0.00 0.00 81 1027.2
20240222023326 27 150 0.0 0.0 0.00 0.00 0.00 81 1027.3
20240222021820 28 150 0.0 0.0 0.00 0.00 0.00 80 1027.5
20240222020337 28 150 0.0 0.0 0.00 0.00 0.00 79 1027.6
20240222014850 29 150 0.0 0.0 0.00 0.00 0.00 78 1027.6
20240222013325 29 169 0.0 1.0 0.00 0.00 0.00 77 1027.8
20240222011819 30 114 0.0 3.0 0.00 0.00 0.00 76 1027.8
20240222010325 30 127 0.0 3.0 0.00 0.00 0.00 76 1027.9
20240222004820 31 103 1.0 3.0 0.00 0.00 0.00 76 1027.9
20240222003327 31 110 1.0 4.0 0.00 0.00 0.00 76 1028.2
20240222001840 31 120 1.0 4.0 0.00 0.00 0.00 75 1028.4
20240222000326 31 127 1.0 4.0 0.00 0.00 0.00 74 1028.6
20240221234819 32 209 1.0 6.0 0.00 0.00 0.00 73 1028.4
20240221233312 32 82 2.0 5.0 0.00 0.00 0.00 72 1028.6
20240221231820 33 120 2.0 8.0 0.00 0.00 0.00 70 1028.5
20240221224824 34 124 2.0 4.0 0.00 0.00 0.00 65 1028.4
20240221223316 35 117 2.0 4.0 0.00 0.00 0.00 63 1028.3
20240221221826 36 84 3.0 6.0 0.00 0.00 0.00 61 1028.4
20240221220327 37 112 2.0 7.0 0.00 0.00 0.00 58 1028.5
20240221214822 39 144 3.0 7.0 0.00 0.00 0.00 53 1028.4
20240221213337 41 60 3.0 6.0 0.00 0.00 0.00 49 1028.3
20240221211831 41 129 1.0 4.0 0.00 0.00 0.00 48 1028.4
20240221210323 41 188 3.0 6.0 0.00 0.00 0.00 48 1028.7
20240221204826 41 104 3.0 8.0 0.00 0.00 0.00 47 1028.7
20240221203319 41 93 3.0 6.0 0.00 0.00 0.00 47 1028.6
20240221201826 41 114 2.0 7.0 0.00 0.00 0.00 47 1028.6
20240221200321 42 39 2.0 6.0 0.00 0.00 0.00 45 1028.6
20240221194836 42 51 1.0 4.0 0.00 0.00 0.00 47 1028.7
20240221193322 42 165 3.0 5.0 0.00 0.00 0.00 45 1028.9
20240221191828 41 40 1.0 3.0 0.00 0.00 0.00 47 1029.1
20240221190322 40 221 1.0 4.0 0.00 0.00 0.00 47 1029.3
20240221184826 40 121 1.0 6.0 0.00 0.00 0.00 48 1029.7
20240221183320 40 135 3.0 5.0 0.00 0.00 0.00 48 1030.0
20240221181822 40 198 3.0 9.0 0.00 0.00 0.00 48 1030.4
20240221180317 40 231 2.0 8.0 0.00 0.00 0.00 49 1030.7
20240221174822 39 53 2.0 6.0 0.00 0.00 0.00 50 1031.2
20240221173327 39 178 3.0 5.0 0.00 0.00 0.00 52 1031.4
20240221171821 38 67 2.0 8.0 0.00 0.00 0.00 54 1031.8
20240221170345 38 245 3.0 8.0 0.00 0.00 0.00 54 1032.2
20240221164821 37 46 3.0 7.0 0.00 0.00 0.00 55 1032.8
20240221163334 37 89 2.0 7.0 0.00 0.00 0.00 56 1033.2
20240221161847 36 204 2.0 8.0 0.00 0.00 0.00 58 1033.6
20240221160343 36 143 1.0 6.0 0.00 0.00 0.00 57 1033.9
20240221154816 36 224 3.0 5.0 0.00 0.00 0.00 56 1034.2
20240221153332 35 101 1.0 1.0 0.00 0.00 0.00 60 1034.4
20240221151825 33 86 1.0 2.0 0.00 0.00 0.00 64 1034.4
20240221150320 31 78 0.0 2.0 0.00 0.00 0.00 67 1034.5
20240221144824 30 284 1.0 2.0 0.00 0.00 0.00 70 1034.8
20240221143319 28 282 1.0 2.0 0.00 0.00 0.00 72 1034.7
20240221141827 27 271 1.0 2.0 0.00 0.00 0.00 74 1034.9
20240221140322 25 263 1.0 3.0 0.00 0.00 0.00 76 1034.8
20240221134818 24 234 1.0 2.0 0.00 0.00 0.00 79 1034.9
20240221133330 23 295 1.0 2.0 0.00 0.00 0.00 81 1035.0
20240221131824 22 273 0.0 2.0 0.00 0.00 0.00 83 1035.0
20240221130317 20 280 0.0 1.0 0.00 0.00 0.00 85 1035.0
20240221124825 19 257 0.0 1.0 0.00 0.00 0.00 87 1035.0
20240221123322 18 248 0.0 1.0 0.00 0.00 0.00 91 1034.9
20240221121816 17 217 0.0 1.0 0.00 0.00 0.00 91 1034.8
20240221120313 16 196 0.0 0.0 0.00 0.00 0.00 91 1034.8
20240221114826 16 196 0.0 0.0 0.00 0.00 0.00 91 1034.8
20240221113321 16 195 0.0 0.0 0.00 0.00 0.00 90 1034.7
20240221111819 16 196 0.0 0.0 0.00 0.00 0.00 90 1034.7
20240221110324 16 196 0.0 0.0 0.00 0.00 0.00 90 1034.7
20240221104820 16 196 0.0 0.0 0.00 0.00 0.00 90 1034.6
20240221103312 16 196 0.0 0.0 0.00 0.00 0.00 89 1034.4
20240221101815 16 195 0.0 0.0 0.00 0.00 0.00 88 1034.4
20240221100320 17 195 0.0 0.0 0.00 0.00 0.00 88 1034.2
20240221094825 17 196 0.0 0.0 0.00 0.00 0.00 88 1034.0
20240221093322 17 196 0.0 0.0 0.00 0.00 0.00 89 1034.1
20240221091829 17 196 0.0 0.0 0.00 0.00 0.00 89 1034.0
20240221090323 17 196 0.0 0.0 0.00 0.00 0.00 87 1033.9
20240221084840 17 195 0.0 0.0 0.00 0.00 0.00 86 1033.7
20240221083315 18 196 0.0 0.0 0.00 0.00 0.00 86 1033.7
20240221081832 18 196 0.0 2.0 0.00 0.00 0.00 86 1033.6
20240221080326 18 53 0.0 1.0 0.00 0.00 0.00 87 1033.5
20240221074825 18 53 0.0 0.0 0.00 0.00 0.00 86 1033.5
20240221073321 18 53 0.0 0.0 0.00 0.00 0.00 86 1033.8
20240221071827 18 53 0.0 0.0 0.00 0.00 0.00 86 1033.8
20240221070324 18 53 0.0 0.0 0.00 0.00 0.00 84 1033.8
20240221064820 19 53 0.0 0.0 0.00 0.00 0.00 83 1034.0
20240221063316 19 53 0.0 0.0 0.00 0.00 0.00 83 1034.1
20240221061830 20 53 0.0 0.0 0.00 0.00 0.00 83 1034.1
20240221060345 20 53 0.0 0.0 0.00 0.00 0.00 82 1034.1
20240221054840 21 53 0.0 0.0 0.00 0.00 0.00 80 1034.1
20240221053317 20 53 0.0 0.0 0.00 0.00 0.00 81 1034.1
20240221051848 21 53 0.0 0.0 0.00 0.00 0.00 78 1033.9
20240221050319 22 53 0.0 0.0 0.00 0.00 0.00 76 1034.0
20240221044814 22 53 0.0 1.0 0.00 0.00 0.00 75 1033.9
20240221043324 22 53 0.0 0.0 0.00 0.00 0.00 74 1034.1
20240221041822 23 53 0.0 0.0 0.00 0.00 0.00 73 1034.0
20240221034828 23 53 0.0 0.0 0.00 0.00 0.00 71 1034.0